[[{"header":{"parameterUnit":"m.s-1","parameterCategory":1,"la1":30.2991,"la2":30.254,"lo1":-89.0895,"lo2":-89.0444,"dy":0.0017,"dx":0.0017,"nx":28,"ny":28,"refTime":"2024-03-18T09:00:00:Z","depth":0,"parameterNumber":2,"parameterNumberName":"U-component_of_WINDS"},"data":[0,0,0,0,0,0,0,0,0,0,0,0,0,0,0,0,0,0,0,0,0,0,0,0,0,0,0,0,0,0,0,0,0,0,0,0,0,0,0,0,0,0,0,0,0,0,0,0,0,0,0,0,0,0,0,0,0,0,-1.0505,-1.0506,0,-1.0638,-1.064,-1.0641,-1.0634,-1.0632,-1.063,-1.0628,-1.0771,-1.0776,-1.0782,0,0,0,0,0,0,0,0,0,0,0,0,0,-1.0247,-1.0252,-1.0504,-1.0506,-1.0508,-1.0638,-1.064,-1.0642,-1.0634,-1.0632,-1.0629,-1.0627,-1.0769,-1.0775,-1.0782,0,0,0,0,0,0,0,0,0,0,0,0,0,-1.0368,-1.0254,-1.0504,-1.052,-1.0522,-1.0638,-1.064,-1.0642,-1.0635,-1.0632,-1.0629,-1.0626,-1.0767,-1.0775,-1.0783,-1.0894,0,0,-1.0809,-1.0812,0,0,0,0,0,0,0,0,-1.0361,-1.0377,-1.0516,-1.0519,-1.0522,-1.0616,-1.0601,-1.0727,-1.0635,-1.0592,-1.0628,-1.0625,-1.0722,-1.0734,-1.0766,-1.09,-1.0906,-1.081,-1.0815,-1.0818,-1.0821,0,0,0,0,0,0,0,-1.0353,-1.0372,-1.0558,-1.0518,-1.0522,-1.0521,-1.0535,-1.0625,-1.0672,-1.0596,-1.0595,-1.0611,-1.0723,-1.0757,-1.0769,-1.0909,-1.0809,-1.0817,-1.0822,-1.0825,-1.1141,-1.1144,0,0,0,0,0,0,-1.034,-1.0365,-1.0553,-1.0562,-1.0432,-1.0528,-1.0544,-1.0589,-1.0671,-1.0681,-1.0613,-1.061,-1.0745,-1.0759,-1.0774,-1.0909,-1.0818,-1.0826,-1.0831,-1.1137,-1.1142,-1.1145,0,0,0,0,0,0,-1.0335,-1.0357,-1.0548,-1.0463,-1.0487,-1.0536,-1.0587,-1.0593,-1.0627,-1.0684,-1.0693,-1.064,-1.0743,-1.0762,-1.0864,-1.0914,-1.083,-1.0838,-1.1134,-1.1139,-1.1143,-1.1181,0,0,0,0,0,0,-1.0327,-1.0355,-1.0397,-1.0464,-1.0492,-1.0634,-1.059,-1.0598,-1.0641,-1.0638,-1.0711,-1.0721,-1.0742,-1.0851,-1.0872,-1.0924,-1.0844,-1.1129,-1.1136,-1.1142,-1.1175,-1.1186,-1.1196,0,0,0,0,0,-1.0318,-1.0403,-1.0399,-1.0422,-1.0545,-1.0637,-1.0653,-1.0675,-1.0645,-1.0688,-1.0725,-1.0718,-1.0904,-1.0861,-1.0885,-1.0941,-1.1126,-1.1134,-1.1141,-1.1171,-1.1184,-1.1196,0,0,0,0,0,0,-1.0343,-1.0412,-1.0408,-1.0517,-1.0571,-1.0636,-1.0691,-1.0688,-1.0753,-1.0748,-1.0773,-1.079,-1.0892,-1.0926,-1.0877,-1.1052,-1.1012,-1.1024,-1.1026,-1.1039,-1.105,-1.104,-1.0851,0,0,0,0,0,-1.0361,-1.0429,-1.0486,-1.0577,-1.0604,-1.0642,-1.0684,-1.0695,-1.0752,-1.0776,-1.082,-1.0877,-1.0949,-1.0996,-1.1065,-1.1179,-1.1196,-1.1229,-1.1239,-1.1247,-1.1259,-1.1322,-1.1338,-1.117,-1.117,-1.1169,0,0,-1.0399,-1.0445,-1.0487,-1.0583,-1.0626,-1.0697,-1.0662,-1.0739,-1.0792,-1.0788,-1.0887,-1.092,-1.0986,-1.1095,-1.1145,-1.1127,-1.1308,-1.1257,-1.1263,-1.127,-1.1332,-1.1348,-1.1362,-1.1175,-1.1174,-1.1173,0,0,-1.0506,-1.0547,-1.0627,-1.067,-1.0735,-1.076,-1.0779,-1.0843,-1.0865,-1.0963,-1.0962,-1.1026,-1.1149,-1.1196,-1.1236,-1.1358,-1.1355,-1.1379,-1.1434,-1.1496,-1.1509,-1.1521,-1.1566,-1.1582,-1.139,-1.139,-1.139,0,-1.0546,-1.0652,-1.0669,-1.0746,-1.0789,-1.0785,-1.0868,-1.0909,-1.0994,-1.1024,-1.1001,-1.1154,-1.1199,-1.1318,-1.1348,-1.138,-1.1404,-1.1373,-1.1506,-1.1518,-1.1529,-1.1573,-1.1589,-1.1393,-1.1392,-1.1392,-1.1392,0,-1.0699,-1.0772,-1.0829,-1.0908,-1.0957,-1.1037,-1.1067,-1.1115,-1.1121,-1.1149,-1.1249,-1.1301,-1.1381,-1.1409,-1.1418,-1.1531,-1.1517,-1.15,-1.1461,-1.1548,-1.1589,-1.1605,-1.1397,-1.1396,-1.1395,-1.1394,0,0,-1.0828,-1.0914,-1.0935,-1.0971,-1.1041,-1.1098,-1.1177,-1.1253,-1.1294,-1.1352,-1.142,-1.1522,-1.1506,-1.1551,-1.1564,-1.1618,-1.1713,-1.1595,-1.1596,-1.1616,-1.1842,-1.1856,-1.1875,-1.171,-1.1713,-1.1716,-1.1837,0,-1.0943,-1.1081,-1.1098,-1.1223,-1.1291,-1.1287,-1.1357,-1.1408,-1.1435,-1.1498,-1.1529,-1.1601,-1.1574,-1.1601,-1.1654,-1.169,-1.1759,-1.1681,-1.1776,-1.1779,-1.1761,-1.1896,-1.1911,-1.2023,-1.1853,-1.1855,-1.1857,0,-1.1096,-1.1156,-1.1286,-1.1346,-1.1375,-1.1437,-1.1507,-1.1567,-1.1625,-1.1641,-1.169,-1.1696,-1.1779,-1.1734,-1.185,-1.1797,-1.1836,-1.1859,-1.1864,-1.1876,-1.1825,-1.1913,-1.2059,-1.2077,-1.1883,-1.1881,-1.1879,0,-1.1179,-1.1292,-1.1385,-1.1416,-1.1487,-1.1531,-1.1563,-1.1618,-1.1662,-1.1723,-1.1752,-1.1823,-1.1863,-1.1919,-1.1944,-1.1908,-1.2058,-1.2015,-1.2076,-1.2075,-1.211,-1.2108,-1.2266,-1.2131,-1.2131,-1.2131,-1.213,0,-1.1307,-1.1388,-1.1423,-1.148,-1.157,-1.1589,-1.1678,-1.1709,-1.1757,-1.1821,-1.1822,-1.1883,-1.1911,-1.1976,-1.1996,-1.209,-1.2107,-1.2124,-1.2129,-1.2125,-1.2123,-1.2153,-1.2147,-1.2135,-1.2134,-1.2133,-1.2133,0,-1.1417,-1.1443,-1.1544,-1.1602,-1.1619,-1.1683,-1.1734,-1.179,-1.1815,-1.1896,-1.1916,-1.1957,-1.2034,-1.2063,-1.2157,-1.2171,-1.2279,-1.2277,-1.2259,-1.2261,-1.232,-1.2315,-1.2506,-1.2532,-1.2378,-1.2379,-1.238,0,-1.1498,-1.1559,-1.1623,-1.1665,-1.1698,-1.1766,-1.181,-1.1831,-1.1877,-1.1947,-1.1995,-1.207,-1.2132,-1.2255,-1.2294,-1.2366,-1.2366,-1.2428,-1.2378,-1.2372,-1.237,-1.2366,-1.2373,-1.2439,-1.244,-1.2441,-1.2442,0,-1.1639,-1.1649,-1.1712,-1.1779,-1.1831,-1.1886,-1.1939,-1.1973,-1.2002,-1.2054,-1.2131,-1.2179,-1.2273,-1.2349,-1.2423,-1.2457,-1.2456,-1.2457,-1.2475,-1.2474,-1.2462,-1.2471,-1.2287,-1.2454,-1.2453,-1.2452,-1.2451,-1.2451,-1.1739,-1.1793,-1.1846,-1.1916,-1.1957,-1.2006,-1.2062,-1.2093,-1.2157,-1.2234,-1.2242,-1.2326,-1.2382,-1.248,-1.2517,-1.2583,-1.2567,-1.2593,-1.26,-1.2607,-1.2612,-1.2449,-1.2597,-1.2596,-1.2596,-1.2596,-1.2596,0,-1.1882,-1.1915,-1.1979,-1.2052,-1.2107,-1.2097,-1.2155,-1.2202,-1.2274,-1.2326,-1.2385,-1.2474,-1.2547,-1.2591,-1.2664,-1.2709,-1.271,-1.2728,-1.2726,-1.2734,-1.2621,-1.2599,-1.2726,-1.2725,-1.2725,-1.2725,-1.2725,-1.2725,-1.1963,-1.2054,-1.207,-1.2182,-1.2215,-1.2295,-1.2329,-1.2375,-1.2416,-1.2514,-1.2574,-1.26,-1.2649,-1.2726,-1.2792,-1.2803,-1.2831,-1.2851,-1.2861,-1.2755,-1.2742,-1.2729,-1.2709,-1.2856,-1.2856,-1.2968,-1.2969,-1.297]},{"header":{"parameterUnit":"m.s-1","parameterCategory":1,"la1":30.2991,"la2":30.254,"lo1":-89.0895,"lo2":-89.0444,"dy":0.0017,"dx":0.0017,"nx":28,"ny":28,"refTime":"2024-03-18T09:00:00:Z","depth":0,"parameterNumber":3,"parameterNumberName":"V-component_of_WINDS"},"data":[0,0,0,0,0,0,0,0,0,0,0,0,0,0,0,0,0,0,0,0,0,0,0,0,0,0,0,0,0,0,0,0,0,0,0,0,0,0,0,0,0,0,0,0,0,0,0,0,0,0,0,0,0,0,0,0,0,0,-7.8769,-7.8771,0,-7.8914,-7.8915,-7.8917,-7.8797,-7.8792,-7.8787,-7.8782,-7.8927,-7.8935,-7.8943,0,0,0,0,0,0,0,0,0,0,0,0,0,-7.8386,-7.8394,-7.8769,-7.8771,-7.8773,-7.8914,-7.8915,-7.8917,-7.8798,-7.8792,-7.8786,-7.878,-7.8924,-7.8934,-7.8944,0,0,0,0,0,0,0,0,0,0,0,0,0,-7.8544,-7.8396,-7.8769,-7.873,-7.8728,-7.8913,-7.8916,-7.8918,-7.8799,-7.8792,-7.8784,-7.8777,-7.8921,-7.8933,-7.8946,-7.9175,0,0,-7.8985,-7.899,0,0,0,0,0,0,0,0,-7.8535,-7.8558,-7.8734,-7.8733,-7.8731,-7.883,-7.8833,-7.9004,-7.8801,-7.8772,-7.8782,-7.8773,-7.89,-7.8914,-7.8958,-7.9182,-7.9188,-7.8986,-7.8994,-7.8999,-7.9003,0,0,0,0,0,0,0,-7.8524,-7.8551,-7.8826,-7.8737,-7.8735,-7.8704,-7.8718,-7.8865,-7.8877,-7.8774,-7.8766,-7.8785,-7.8898,-7.8946,-7.896,-7.919,-7.8985,-7.8997,-7.9005,-7.901,-7.9608,-7.9616,0,0,0,0,0,0,-7.8517,-7.8543,-7.8822,-7.8831,-7.8613,-7.8717,-7.8733,-7.8806,-7.8875,-7.8878,-7.8791,-7.8779,-7.8928,-7.8946,-7.8965,-7.9238,-7.8999,-7.9011,-7.9018,-7.96,-7.961,-7.9619,0,0,0,0,0,0,-7.851,-7.8544,-7.8816,-7.8684,-7.8717,-7.8732,-7.8814,-7.8813,-7.886,-7.8887,-7.8888,-7.8838,-7.8922,-7.8947,-7.9124,-7.9241,-7.9017,-7.9028,-7.9591,-7.9603,-7.9615,-7.9786,0,0,0,0,0,0,-7.8499,-7.8542,-7.863,-7.8687,-7.8724,-7.8974,-7.8822,-7.8821,-7.8883,-7.8868,-7.8932,-7.8935,-7.8918,-7.9105,-7.9137,-7.9255,-7.9038,-7.958,-7.9596,-7.9611,-7.977,-7.9803,-7.9831,0,0,0,0,0,-7.8486,-7.8672,-7.8635,-7.867,-7.8835,-7.8981,-7.9002,-7.898,-7.8893,-7.8981,-7.8999,-7.8933,-7.9223,-7.9125,-7.9159,-7.9282,-7.9573,-7.9592,-7.961,-7.9756,-7.9796,-7.983,0,0,0,0,0,0,-7.8627,-7.8679,-7.8639,-7.8849,-7.8912,-7.8961,-7.9072,-7.9023,-7.9111,-7.9094,-7.9061,-7.9077,-7.9263,-7.929,-7.9179,-7.9507,-7.9384,-7.941,-7.9484,-7.9522,-7.9552,-7.9541,-7.9049,0,0,0,0,0,-7.8683,-7.8798,-7.8836,-7.9018,-7.9052,-7.9057,-7.912,-7.9097,-7.916,-7.9186,-7.9216,-7.9279,-7.9384,-7.9454,-7.9552,-7.9773,-7.9784,-7.9875,-7.9905,-7.993,-7.9953,-8.0071,-8.0111,-7.968,-7.968,-7.9679,0,0,-7.8799,-7.8841,-7.8916,-7.9048,-7.9094,-7.9213,-7.908,-7.9212,-7.9299,-7.9205,-7.9375,-7.9399,-7.9467,-7.9667,-7.9756,-7.9695,-8.0075,-7.9953,-7.9973,-7.9983,-8.0094,-8.0135,-8.0171,-7.9693,-7.969,-7.9688,0,0,-7.9071,-7.9116,-7.9272,-7.9321,-7.9392,-7.9394,-7.9432,-7.9489,-7.9501,-7.9671,-7.9603,-7.9706,-7.9888,-7.9939,-7.9988,-8.028,-8.0222,-8.0312,-8.0471,-8.0587,-8.0621,-8.065,-8.0754,-8.0792,-8.0335,-8.0335,-8.0336,0,-7.9207,-7.9385,-7.9358,-7.9495,-7.9554,-7.9476,-7.9633,-7.9681,-7.9781,-7.9823,-7.9753,-7.998,-8.002,-8.023,-8.0301,-8.0344,-8.0385,-8.0305,-8.0618,-8.0648,-8.0675,-8.0774,-8.0813,-8.0346,-8.0345,-8.0344,-8.0343,0,-7.9547,-7.9671,-7.9789,-7.9888,-7.9961,-8.0107,-8.0101,-8.0178,-8.0149,-8.0157,-8.033,-8.0375,-8.0481,-8.0529,-8.0502,-8.0736,-8.0695,-8.0623,-8.0498,-8.0727,-8.0819,-8.0857,-8.0361,-8.0357,-8.0354,-8.0351,0,0,-7.9914,-7.9996,-8.004,-8.0084,-8.0157,-8.0252,-8.0394,-8.0498,-8.0564,-8.0635,-8.0753,-8.0908,-8.0841,-8.0898,-8.0875,-8.0976,-8.1204,-8.089,-8.0891,-8.0947,-8.1464,-8.1519,-8.1563,-8.1166,-8.1173,-8.1178,-8.1458,0,-8.019,-8.0439,-8.0418,-8.0653,-8.0767,-8.0694,-8.0817,-8.0874,-8.0886,-8.0983,-8.0995,-8.1106,-8.1009,-8.1042,-8.1139,-8.1156,-8.1307,-8.1135,-8.1274,-8.1279,-8.1261,-8.1611,-8.167,-8.1932,-8.1494,-8.15,-8.1504,0,-8.0546,-8.063,-8.0877,-8.0932,-8.0979,-8.1091,-8.1185,-8.1279,-8.1342,-8.1343,-8.1406,-8.1366,-8.1507,-8.1379,-8.1572,-8.1456,-8.1511,-8.1528,-8.1537,-8.155,-8.1407,-8.1634,-8.2015,-8.2055,-8.1561,-8.1556,-8.1552,0,-8.0789,-8.0964,-8.1135,-8.1174,-8.1243,-8.1323,-8.1355,-8.141,-8.1474,-8.1555,-8.1596,-8.1693,-8.1746,-8.182,-8.1806,-8.1714,-8.2004,-8.1874,-8.2008,-8.2009,-8.2074,-8.207,-8.247,-8.2109,-8.2108,-8.2107,-8.2107,0,-8.11,-8.1254,-8.1245,-8.135,-8.1519,-8.1493,-8.1662,-8.1684,-8.1734,-8.184,-8.1781,-8.1882,-8.1858,-8.1958,-8.1947,-8.2109,-8.2133,-8.2137,-8.2133,-8.2143,-8.2143,-8.218,-8.2161,-8.2118,-8.2115,-8.2113,-8.2112,0,-8.1401,-8.1401,-8.1582,-8.1632,-8.1648,-8.1771,-8.1813,-8.1911,-8.1917,-8.2053,-8.2083,-8.2093,-8.2207,-8.2201,-8.233,-8.2322,-8.2522,-8.2496,-8.2502,-8.2497,-8.2631,-8.2619,-8.3069,-8.3127,-8.2728,-8.2732,-8.2735,0,-8.16,-8.1717,-8.1779,-8.1847,-8.1885,-8.1995,-8.206,-8.2038,-8.2108,-8.2188,-8.2276,-8.2385,-8.2472,-8.2658,-8.2675,-8.2773,-8.2749,-8.29,-8.2763,-8.277,-8.2752,-8.2745,-8.2757,-8.2927,-8.2932,-8.2935,-8.2938,0,-8.1953,-8.1947,-8.2044,-8.2142,-8.2221,-8.2296,-8.2365,-8.2423,-8.2408,-8.2489,-8.2606,-8.2673,-8.2805,-8.2914,-8.3007,-8.3038,-8.2987,-8.2981,-8.3017,-8.303,-8.3028,-8.3031,-8.2576,-8.2971,-8.2968,-8.2965,-8.2964,-8.2962,-8.2209,-8.231,-8.237,-8.2479,-8.2528,-8.2594,-8.2689,-8.2707,-8.2804,-8.2911,-8.2891,-8.3023,-8.308,-8.3201,-8.324,-8.3341,-8.3287,-8.334,-8.3353,-8.3367,-8.3382,-8.3012,-8.3358,-8.3357,-8.3356,-8.3355,-8.3355,0,-8.256,-8.2594,-8.2695,-8.2794,-8.288,-8.2824,-8.2896,-8.2972,-8.3088,-8.3148,-8.3234,-8.3368,-8.3473,-8.3498,-8.3599,-8.3675,-8.3653,-8.3702,-8.3696,-8.3704,-8.3425,-8.3384,-8.3717,-8.3717,-8.3717,-8.3717,-8.3717,-8.3717,-8.2752,-8.2919,-8.292,-8.311,-8.3143,-8.3272,-8.3318,-8.3378,-8.3425,-8.3578,-8.3665,-8.3681,-8.3727,-8.383,-8.3923,-8.3927,-8.3967,-8.4026,-8.4021,-8.376,-8.3724,-8.3689,-8.365,-8.4034,-8.4035,-8.4292,-8.4294,-8.4296]}]]